Tracking 28052 objects as of 21-Sep-2023
HD Live streaming from Space Station
objects crossing your sky now

IRIDIUM 69

Track IRIDIUM 69 now!
10-day predictions
IRIDIUM 69 is classified as:


NORAD ID: 25319
Int'l Code: 1998-026A
Perigee: 765.9 km
Apogee: 768.2 km
Inclination: 86.4 °
Period: 100.0 minutes
Semi major axis: 7138 km
RCS: 4.3416 m2 (large)
Launch date: May 2, 1998
Source: United States (US)
Launch site: Taiyaun Space Center, China (TSC)
Your satellite tracking list
Your tracking list is empty




NASA's NSSDC Master Catalog

Two Line Element Set (TLE):
1 25319U 98026A   23263.88822331  .00000922  00000-0  28939-3 0  9993
2 25319  86.4047   3.3912 0001620  23.0382 337.0890 14.39566711331860
Source of the keplerian elements: AFSPC